UB3APB-W3 Weather Reports


time (UTC)temp
F
wind
direction
speed
knots
gust
knots
rain 1hr
in
rain 24hr
in
rain mn
in
humidity
%
barometer
mb
20260906103315 63 0.0 0.0 0.00 0.00 0.00 981.9
20260906093224 60 0.0 0.0 0.00 0.00 0.00 981.7
20260906092716 60 0.0 0.0 0.00 0.00 0.00 981.7
20260906091705 0 0.0 0.0 0.00 0.00 0.00 16.9
20260906081543 59 0.0 0.0 0.00 0.00 0.00 981.4
20260906081039 59 0.0 0.0 0.00 0.00 0.00 981.5
20260906080532 59 0.0 0.0 0.00 0.00 0.00 981.4
20260906080026 59 0.0 0.0 0.00 0.00 0.00 981.4
20260906075518 59 0.0 0.0 0.00 0.00 0.00 981.4
20260906075012 59 0.0 0.0 0.00 0.00 0.00 981.4
20260906064839 57 0.0 0.0 0.00 0.00 0.00 981.3
20260906064333 56 0.0 0.0 0.00 0.00 0.00 981.4
20260906063826 56 0.0 0.0 0.00 0.00 0.00 981.5
20260906063318 55 0.0 0.0 0.00 0.00 0.00 981.3
20260906053134 0 0.0 0.0 0.00 0.00 0.00 15.6
20260906052628 0 0.0 0.0 0.00 0.00 0.00 15.5
20260906052121 57 0.0 0.0 0.00 0.00 0.00 15.4
20260906051614 57 0.0 0.0 0.00 0.00 0.00 980.9
20260906041347 55 0.0 0.0 0.00 0.00 0.00 980.9
20260906040841 55 0.0 0.0 0.00 0.00 0.00 981.0
20260906040334 55 0.0 0.0 0.00 0.00 0.00 980.9
20260906035828 54 0.0 0.0 0.00 0.00 0.00 980.9
20260906035326 55 0.0 0.0 0.00 0.00 0.00 980.9
20260906034818 55 0.0 0.0 0.00 0.00 0.00 497.8
20260906024621 0 0.0 0.0 0.00 0.00 0.00 14.7
20260906024115 54 0.0 0.0 0.00 0.00 0.00 980.5
20260906023611 54 0.0 0.0 0.00 0.00 0.00 980.3
20260906023106 54 0.0 0.0 0.00 0.00 0.00 980.3
20260906012625 54 0.0 0.0 0.00 0.00 0.00 14.7
20260906012118 54 0.0 0.0 0.00 0.00 0.00 980.2
20260906011609 54 0.0 0.0 0.00 0.00 0.00 980.3
20260906001446 55 0.0 0.0 0.00 0.00 0.00 980.1
20260906000939 55 0.0 0.0 0.00 0.00 0.00 980.1
20260906000433 55 0.0 0.0 0.00 0.00 0.00 979.9
20260905235927 55 0.0 0.0 0.00 0.00 0.00 979.9
20260905235423 55 0.0 0.0 0.00 0.00 0.00 980.1
20260905234918 55 0.0 0.0 0.00 0.00 0.00 979.9
20260905224735 52 0.0 0.0 0.00 0.00 0.00 979.5
20260905223724 52 0.0 0.0 0.00 0.00 0.00 979.5
20260905213142 0 0.0 0.0 0.00 0.00 0.00 14.5
20260905212636 0 0.0 0.0 0.00 0.00 0.00 14.8
20260905212129 0 0.0 0.0 0.00 0.00 0.00 14.9
20260905211619 53 0.0 0.0 0.00 0.00 0.00 979.7
20260905201041 53 0.0 0.0 0.00 0.00 0.00 979.5
20260905200535 53 0.0 0.0 0.00 0.00 0.00 979.4
20260905200028 53 0.0 0.0 0.00 0.00 0.00 979.4
20260905195521 53 0.0 0.0 0.00 0.00 0.00 979.4
20260905195014 53 0.0 0.0 0.00 0.00 0.00 979.4
20260905184921 53 0.0 0.0 0.00 0.00 0.00 979.5
20260905184419 53 0.0 0.0 0.00 0.00 0.00 979.5
20260905183912 53 0.0 0.0 0.00 0.00 0.00 979.5
20260905183405 54 0.0 0.0 0.00 0.00 0.00 979.5
20260905173238 57 0.0 0.0 0.00 0.00 0.00 979.1
20260905172737 57 0.0 0.0 0.00 0.00 0.00 979.1
20260905171722 59 0.0 0.0 0.00 0.00 0.00 979.1
20260905161335 57 0.0 0.0 0.00 0.00 0.00 978.5
20260905160825 57 0.0 0.0 0.00 0.00 0.00 978.5
20260905160321 58 0.0 0.0 0.00 0.00 0.00 978.3
20260905155814 59 0.0 0.0 0.00 0.00 0.00 978.3
20260905155306 59 0.0 0.0 0.00 0.00 0.00 978.3
20260905154802 60 0.0 0.0 0.00 0.00 0.00 978.3
20260905144619 62 0.0 0.0 0.00 0.00 0.00 977.4
20260905144119 62 0.0 0.0 0.00 0.00 0.00 977.3
20260905143611 63 0.0 0.0 0.00 0.00 0.00 977.3
20260905143103 63 0.0 0.0 0.00 0.00 0.00 977.1
20260905132618 63 0.0 0.0 0.00 0.00 0.00 976.9
20260905132111 64 0.0 0.0 0.00 0.00 0.00 976.9
20260905131602 64 0.0 0.0 0.00 0.00 0.00 976.7
20260905121250 62 0.0 0.0 0.00 0.00 0.00 976.1
20260905120744 62 0.0 0.0 0.00 0.00 0.00 976.1
20260905120236 63 0.0 0.0 0.00 0.00 0.00 976.1
20260905115730 62 0.0 0.0 0.00 0.00 0.00 975.8
20260905115222 63 0.0 0.0 0.00 0.00 0.00 975.7
20260905114715 64 0.0 0.0 0.00 0.00 0.00 975.4
20260905104335 65 0.0 0.0 0.00 0.00 0.00 974.2
20260905103827 64 0.0 0.0 0.00 0.00 0.00 974.2